Location: ??? ???
(33.4974°N, 35.4618°E)
Time: 18:19:28
(UTC+00:00)

Cosmos 2263 Rocket - Pass Details

Date: 29 October 2020
Orbit: 822 x 850 km, 71.0° (Epoch: 29 November)

Event Time Altitude Azimuth Distance (km) Brightness Sun altitude
Rises 16:59:50 0° 349° (N) 3,417 5.5 -27.9°
Reaches altitude 10° 17:02:33 10° 359° (N) 2,480 4.6 -28.4°
Enters shadow 17:03:30 14° 4° (N) 2,174 4.3 -28.6°
